KHVS

Details ICAO KHVS
Name HARTSVILLE RGNL
Region United States
Timezone America/New_York (UTC-4.0)
Plans Departing 1
Arriving 1
Stats Elevation 364 ft / 111 m (AMSL)
Location 34.403072° -80.119226°
Runways 1
Magnetic Variation 8.113° W
Sunrise 2018-05-24 10:14:00 UTC / 2018-05-24 06:14:00 Local
Sunset 2018-05-25 00:23:33 UTC / 2018-05-24 20:23:33 Local
Advertisement - Login to hide

Runways

ID Width Length Bearing (true) Bearing (mag) Surface Threshold Offset Overrun Length
03 75 ft / 23 m 5,010 ft / 1,527 m 22.34° 30.45° Asphalt 0 ft / 0 m 0 ft / 0 m
21 75 ft / 23 m 5,010 ft / 1,527 m 202.34° 210.45° Asphalt 0 ft / 0 m 0 ft / 0 m

Map

Weather


0- 5 10 15 20 25 30 35+ Temperature / ° C

Clouds and Precipitation
Forecast for 2018-05-24 12:00 UTC. Updated 3 hours ago

Ground ~20,000 ft ~40,000 ft Winds

METAR

KHVS 241435Z AUTO 05003KT 10SM BKN015 BKN110 25/21 A3014 RMK AO2

TAF

Not found

Frequencies

Recorded 118.22 MHz AWOS 3
Approach 125.40 MHz SHAW APP/DEP
Unicom 122.80 MHz CTAF/UNICOM
Warning: Do not use this data for real-world aviation or navigation. No guarantee of current accuracy is given.